Location: Unspecified
(0.0000°N, 0.0000°E)
Time: 01:20:04
(UTC+00:00)

ITAMSAT 1 - Pass Details

Date: 13 December 2017
Orbit: 785 x 796 km, 98.9° (Epoch: 19 July)

Event Time Altitude Azimuth Distance (km) Brightness Sun altitude
Exits shadow 03:10:09 19° 166° (SSE) 1,795 9.8 -37.1°
Drops below altitude 10° 03:11:41 10° 174° (S) 2,345 10.4 -36.8°
Sets 03:14:06 0° 180° (S) 3,277 11.2 -36.2°
